Theta_e
349 349 354 354 356 353 351 349 349 350 351 351 351 351 351 351 351 351 351 351 352 351 351 352 350 350 352 351 352 350 348 348 347 347 348 349 348 349 346 347 348 345 344
348 351 351 353 356 356 351 345 342 344 349 351 349 349 351 351 352 352 353 352 352 353 352 352 350 349 350 348 347 348 349 349 350 348 346 349 349 347 347 346 348 348 348
348 349 349 350 354 356 351 343 340 341 347 347 348 348 351 351 352 351 352 352 353 352 351 351 349 347 348 349 348 348 350 349 347 349 347 347 346 347 345 349 348 346 348
346 348 348 350 354 355 353 345 344 343 346 343 347 348 351 351 351 351 351 352 351 351 352 352 347 347 351 348 349 348 347 346 346 347 344 347 349 348 344 346 347 347 345
347 347 346 349 354 353 353 350 349 348 349 349 349 348 351 351 352 352 351 352 351 352 352 350 348 349 350 349 349 349 349 347 345 343 344 344 344 347 348 340 345 347 338
347 347 350 351 355 354 353 347 349 350 352 351 351 351 351 351 351 350 352 353 351 352 352 348 348 349 350 349 347 344 343 343 346 342 343 344 343 343 348 341 341 346 343
346 346 346 346 354 354 352 352 350 351 350 350 351 352 352 351 352 353 347 351 351 351 351 348 348 350 350 347 344 343 343 346 347 347 347 334 339 337 342 338 343 344 345
345 347 346 349 347 349 351 352 351 352 351 351 352 352 352 352 352 352 352 351 350 352 349 347 346 349 348 343 340 342 345 348 344 341 339 331 337 344 349 348 347 347 338
347 345 346 353 353 351 353 353 353 352 351 352 353 351 352 352 352 352 350 352 349 348 350 349 347 347 343 340 340 342 343 347 345 338 337 338 345 348 350 345 340 336 336
345 343 341 343 348 349 349 346 351 353 352 352 352 351 351 352 351 352 349 347 352 344 350 350 351 344 340 336 338 341 340 342 344 343 338 339 340 345 348 348 342 337 341
347 344 342 341 345 344 346 351 351 353 353 353 352 351 351 349 350 350 347 346 351 351 351 351 350 349 342 339 338 339 339 339 346 347 346 346 340 335 341 347 339 334 334
348 345 343 341 343 345 349 347 345 348 351 352 350 351 348 346 346 348 346 345 352 352 352 351 351 346 341 340 341 339 340 339 346 346 345 347 342 334 338 331 334 339 334
342 344 343 342 345 343 344 341 342 341 346 348 350 349 346 344 343 343 344 344 348 351 351 350 347 346 341 336 337 338 339 341 342 345 346 345 343 339 337 335 334 340 341
348 342 341 342 345 344 344 342 342 340 341 344 345 345 346 347 345 344 345 347 346 348 349 349 345 344 345 340 338 338 340 342 340 343 345 345 343 341 340 337 335 335 343
349 346 345 342 343 344 345 344 343 342 342 341 342 344 347 350 346 342 345 346 347 346 348 347 346 345 344 345 342 341 347 346 345 346 346 345 340 340 342 341 336 339 338
352 351 350 347 346 347 348 348 348 348 346 345 347 349 349 349 346 344 345 346 347 348 347 347 342 345 345 343 343 345 347 347 347 346 346 345 344 343 343 343 342 340 338
353 353 352 351 349 349 349 349 352 350 349 348 349 351 350 348 344 344 345 346 347 347 347 347 345 347 347 348 347 347 347 347 346 347 347 347 345 345 344 343 344 344 342
352 353 352 352 350 348 349 350 352 350 342 350 351 349 349 348 345 346 344 344 346 347 346 347 346 347 348 348 348 347 347 347 347 347 348 348 348 347 346 345 344 345 344
349 351 352 352 352 350 350 352 351 351 341 349 348 350 350 348 345 341 340 340 342 346 347 346 346 348 348 348 347 347 347 349 348 348 348 347 347 346 346 347 346 346 345
347 348 350 351 352 351 351 352 352 352 348 349 348 349 349 348 347 348 348 348 342 343 347 348 347 347 348 348 346 347 347 347 346 346 347 348 346 346 347 348 348 348 347
348 349 350 352 352 352 352 353 352 352 351 348 347 347 342 345 345 348 348 349 347 344 345 347 346 346 346 345 346 346 345 345 345 345 345 346 346 346 346 346 346 347 347
348 350 351 351 352 352 353 352 353 352 349 349 348 343 341 346 349 349 349 350 349 346 344 345 346 346 346 346 345 343 341 342 343 345 345 344 345 348 347 347 346 346 347
349 350 351 351 352 352 352 353 354 353 352 351 350 348 345 347 350 350 350 348 346 344 344 345 345 345 347 346 346 342 340 341 339 343 345 346 347 347 347 346 345 344 344
350 351 351 352 353 353 353 355 355 356 353 353 352 351 345 349 348 350 349 347 346 344 345 345 345 345 344 345 345 345 343 342 338 338 342 345 347 346 344 342 344 344 343
350 351 352 353 354 355 355 356 356 356 355 353 348 343 346 349 350 349 348 347 344 344 344 345 345 344 343 340 343 342 344 344 343 338 338 339 343 344 344 343 344 345 345
352 352 353 354 356 356 356 356 357 356 354 350 348 353 350 347 349 349 348 346 345 343 343 344 344 344 341 340 340 340 340 342 342 342 338 339 341 341 342 341 342 342 342
Wind_Speed
18 21 23 20 18 17 18 18 18 17 18 18 18 18 18 18 16 16 15 15 15 16 15 15 15 15 15 15 15 15 17 19 19 18 16 17 17 17 16 16 15 15 14
27 25 24 21 19 18 17 18 18 17 16 17 16 16 17 17 16 15 15 15 15 16 15 15 14 14 15 15 15 17 18 20 20 18 16 16 17 15 16 15 15 15 15
28 28 25 22 20 18 17 17 18 17 15 15 14 14 14 15 15 15 15 15 15 13 13 15 14 14 16 16 16 18 18 19 20 17 15 15 16 15 15 15 14 14 14
30 28 25 21 18 18 16 16 16 16 14 13 12 12 13 13 13 12 13 14 13 13 13 14 14 15 16 15 17 17 18 18 18 16 17 17 14 14 14 14 13 14 12
29 28 25 22 20 18 17 16 15 15 14 13 12 12 13 12 12 11 12 13 14 14 13 12 13 14 15 16 15 17 18 17 16 15 13 14 16 14 14 14 14 14 12
30 27 24 22 20 19 18 17 16 15 14 13 12 12 12 13 12 13 12 12 12 13 13 11 12 14 15 16 17 17 14 12 11 10 8 13 14 14 15 12 15 13 12
31 28 25 23 22 21 18 17 16 15 14 12 12 11 12 12 12 12 13 12 11 12 11 11 12 14 13 15 16 14 12 9 7 10 10 13 14 14 15 15 14 12 12
33 29 25 22 22 22 19 18 17 16 15 13 12 11 11 12 11 12 11 12 12 10 10 11 12 12 13 14 14 14 12 7 5 9 15 14 15 12 14 14 14 14 11
29 28 26 23 21 22 21 20 19 17 16 14 12 11 10 11 11 11 12 11 11 11 10 11 11 12 13 14 14 12 10 8 7 11 13 13 12 12 13 12 13 13 12
28 27 27 26 24 23 22 20 18 16 15 13 12 11 11 10 9 9 10 11 11 11 11 11 11 12 13 13 14 11 9 6 7 11 14 12 12 13 14 13 13 13 13
25 28 28 28 26 25 23 20 18 17 16 15 12 11 12 12 10 8 10 11 11 11 12 11 12 12 13 13 13 13 10 7 7 7 13 14 14 13 14 15 14 14 14
25 30 30 29 28 25 23 21 20 18 16 15 15 14 13 13 12 11 11 11 11 12 12 12 13 11 12 13 13 10 9 9 6 5 6 14 17 15 14 15 16 15 14
36 32 32 31 28 28 26 23 20 19 18 17 16 15 13 12 12 13 12 11 13 13 13 13 13 13 12 12 13 12 10 10 9 7 8 11 20 15 13 15 16 16 16
27 35 32 31 30 28 26 24 22 22 20 19 18 16 15 14 12 13 14 14 14 15 15 15 14 14 13 12 12 11 9 8 9 9 8 9 21 15 12 14 17 17 17
30 33 32 31 30 29 26 23 22 22 22 20 18 18 17 16 15 13 13 17 18 17 16 16 16 16 16 14 13 13 10 9 10 9 7 12 19 18 13 13 15 17 17
34 35 32 32 30 29 29 27 26 20 18 20 19 19 18 15 14 18 15 16 17 18 17 16 17 16 14 15 15 14 12 10 10 12 12 14 16 17 17 14 15 16 18
36 37 35 34 32 30 30 28 24 18 19 22 22 17 19 17 14 17 17 18 18 18 19 18 17 16 16 15 16 16 15 15 14 14 12 14 20 17 20 20 18 16 16
37 36 37 36 34 32 32 29 26 24 20 22 21 18 18 17 18 17 16 18 18 19 19 23 21 18 19 19 17 15 14 14 14 14 13 13 17 22 22 21 21 22 20
40 39 38 36 37 35 32 31 29 28 21 21 19 20 19 19 22 23 20 19 17 20 21 22 22 20 18 18 18 15 15 13 14 14 14 15 17 18 19 22 25 22 23
38 39 39 39 38 36 32 29 29 29 25 22 21 19 20 20 18 20 19 19 21 21 23 23 23 21 19 19 17 15 15 14 15 16 15 16 16 17 16 19 22 21 24
36 35 38 37 39 37 34 30 28 31 27 24 23 21 20 22 20 20 18 19 21 24 26 26 25 23 20 16 13 13 14 15 17 18 17 15 17 16 19 20 19 20 21
37 36 37 40 39 40 37 35 28 30 26 23 19 17 20 18 19 18 18 19 20 23 26 28 26 21 20 16 7 2 1 8 17 15 17 19 19 16 15 15 15 15 17
33 38 40 42 41 41 38 32 23 17 18 16 22 21 17 17 18 16 16 17 17 20 24 26 25 24 19 17 16 5 1 4 1 3 4 7 13 15 14 14 15 15 16
37 35 40 39 39 40 38 33 30 23 21 21 20 18 16 15 15 13 15 14 15 21 21 23 24 20 16 15 12 15 8 2 3 2 2 3 7 9 10 10 9 10 11
33 35 36 35 35 38 38 33 31 28 21 16 10 11 13 14 16 15 15 13 15 19 23 24 23 20 19 15 13 5 11 11 9 2 3 3 6 7 7 6 5 5 4
28 30 33 34 32 35 34 31 28 25 19 12 10 8 12 17 17 17 16 15 13 18 24 25 23 21 21 20 18 18 18 6 8 6 3 4 5 7 9 7 6 6 4
Wind_Direction
176 169 165 158 151 148 145 142 136 128 124 123 124 125 126 126 129 132 135 133 129 125 123 123 120 119 119 121 120 120 121 118 116 120 123 122 124 118 119 122 123 117 121
161 165 168 159 154 151 149 149 146 138 132 128 127 127 130 132 131 129 131 139 135 129 128 127 123 123 121 122 123 124 123 119 120 122 123 130 129 122 123 126 123 124 127
161 163 167 162 158 156 155 153 150 147 140 133 128 129 132 134 134 132 130 133 141 135 135 133 126 124 128 125 124 128 124 123 123 129 133 139 129 123 127 127 129 129 128
161 164 167 164 162 160 156 155 154 151 146 139 136 134 132 136 133 130 135 136 137 138 144 131 127 131 130 130 128 129 125 128 132 133 129 132 133 137 134 136 133 131 135
164 167 168 168 167 164 162 158 158 156 152 152 146 142 141 142 137 134 135 140 139 142 134 134 135 137 133 132 132 134 131 128 131 135 135 143 142 140 142 137 141 134 142
166 168 168 169 170 167 165 164 163 163 160 160 158 156 156 150 148 144 142 134 143 146 142 141 142 146 137 135 131 131 134 139 142 155 153 164 155 146 144 147 150 145 141
167 169 171 173 170 169 168 168 168 166 168 169 170 168 164 162 157 153 148 147 149 152 150 151 153 147 143 141 137 136 139 139 183 207 209 182 164 154 150 147 149 151 150
168 171 171 174 172 171 170 172 172 171 176 176 176 174 170 171 167 162 160 157 159 163 157 158 159 156 152 152 149 145 143 146 161 175 176 176 167 165 159 158 162 165 163
173 172 173 175 174 174 173 175 177 178 178 178 178 176 177 175 170 170 169 170 165 169 166 166 164 164 163 163 162 159 157 140 146 167 177 184 174 178 176 173 173 176 172
178 179 179 181 179 180 179 180 178 179 180 184 187 182 181 176 176 180 182 180 177 175 177 180 181 175 175 175 169 173 164 156 140 184 194 200 193 187 189 188 185 181 180
182 186 185 184 185 186 184 181 184 185 186 190 191 191 185 190 189 199 202 192 189 189 186 190 195 192 183 182 181 184 175 184 171 195 204 206 203 203 197 195 197 194 189
187 193 193 190 189 188 190 187 191 189 196 200 199 198 206 204 207 211 215 208 200 196 197 203 204 207 200 193 195 194 196 190 189 190 186 205 208 210 211 206 203 201 199
193 193 197 197 193 190 192 193 198 201 202 205 210 211 210 216 215 214 218 218 211 203 205 209 210 212 210 206 204 207 206 204 205 216 241 230 211 213 216 215 211 210 209
191 195 197 199 198 197 195 197 201 205 208 209 211 211 212 217 222 216 221 221 222 215 212 212 215 217 221 221 214 215 212 221 226 227 249 234 207 211 220 221 219 218 216
191 196 200 199 201 200 199 201 205 211 214 213 210 213 219 227 231 223 221 216 222 220 223 221 222 223 227 226 221 219 227 235 218 235 267 217 212 213 221 228 231 227 225
196 199 200 199 202 199 201 203 202 206 217 219 214 218 221 226 232 209 202 215 220 221 225 225 222 223 226 230 227 225 227 233 234 245 246 224 218 226 228 233 238 239 233
202 203 202 200 200 200 203 206 207 211 219 222 221 228 225 220 220 212 213 213 222 224 229 223 221 227 232 234 234 232 236 239 242 249 246 230 223 232 238 233 237 242 244
200 203 207 202 201 202 204 206 210 210 222 222 230 230 233 225 221 222 221 220 221 222 231 224 220 225 229 235 240 242 243 241 245 238 245 239 237 238 239 237 241 242 239
203 203 207 204 204 204 208 209 212 210 226 223 227 234 239 233 233 232 236 235 227 225 218 224 219 218 223 225 230 241 239 233 236 244 246 243 243 244 249 246 247 255 248
205 207 208 205 206 206 208 210 207 211 220 220 230 232 236 239 242 241 239 241 231 227 219 217 216 223 228 232 230 230 226 240 250 252 254 251 258 253 252 254 259 253 250
202 199 202 201 205 204 204 198 200 209 221 229 236 236 245 242 240 243 247 242 234 230 224 219 217 220 230 234 230 241 244 245 252 258 258 263 265 260 251 254 258 259 250
196 199 200 204 204 203 201 206 207 213 221 230 234 248 244 240 241 240 243 245 244 236 224 222 217 215 221 216 193 165 282 262 252 259 264 260 259 257 252 254 256 259 252
193 196 200 202 204 201 203 207 206 212 219 224 234 248 246 243 250 248 240 246 243 223 220 218 212 215 201 204 209 171 149 228 316 227 272 258 243 244 250 256 257 256 252
197 195 201 202 202 201 205 206 208 212 217 232 242 250 250 243 243 236 238 248 235 220 222 219 208 203 198 198 213 224 229 174 176 316 236 257 246 247 246 254 263 265 255
187 190 195 200 201 203 206 209 213 220 227 243 246 261 246 246 228 231 237 241 230 224 224 224 224 217 216 213 209 196 234 242 242 169 248 235 257 252 243 259 270 284 322
180 181 189 197 198 205 205 210 218 226 233 238 229 248 255 245 243 233 227 239 229 225 225 222 228 225 220 219 225 239 238 209 213 200 206 228 234 254 251 261 271 286 292